GW5424 Weather Reports


time (UTC)temp
C
wind
direction
speed
KPH
gust
KPH
rain 1hr
cm
rain 24hr
cm
rain mn
cm
humidity
%
barometer
mb
20260507060534 11 355 0.0 3.2 0.00 0.00 0.00 85 1020.3
20260507060057 11 0 0.0 3.2 0.00 0.00 0.00 85 1020.3
20260507055539 11 0 0.0 3.2 0.00 0.00 0.00 86 1020.3
20260507055037 11 0 0.0 3.2 0.00 0.00 0.00 85 1020.3
20260507054549 11 0 0.0 3.2 0.00 0.00 0.00 85 1020.4
20260507054037 11 9 0.0 3.2 0.00 0.00 0.00 85 1020.3
20260507053537 11 0 0.0 3.2 0.00 0.00 0.00 86 1020.2
20260507053053 11 183 0.0 3.2 0.00 0.00 0.00 85 1020.3
20260507052537 11 0 0.0 3.2 0.00 0.00 0.00 85 1020.4
20260507052038 11 0 0.0 3.2 0.00 0.00 0.00 84 1020.3
20260507051545 11 0 0.0 3.2 0.00 0.00 0.00 84 1020.2
20260507051039 11 39 0.0 3.2 0.00 0.00 0.00 84 1020.3
20260507050539 12 0 0.0 3.2 0.00 0.00 0.00 84 1020.3
20260507050051 12 0 0.0 3.2 0.00 0.00 0.00 85 1020.3
20260507045541 12 0 0.0 3.2 0.00 0.00 0.00 85 1020.3
20260507045035 12 0 0.0 3.2 0.00 0.00 0.00 85 1020.2
20260507044557 12 0 0.0 3.2 0.00 0.00 0.00 85 1020.3
20260507044037 12 0 0.0 3.2 0.00 0.00 0.00 85 1020.3
20260507043536 12 90 0.0 3.2 0.00 0.00 0.00 86 1020.2
20260507043046 12 227 0.0 3.2 0.00 0.00 0.00 85 1020.2
20260507042538 12 0 0.0 4.8 0.00 0.00 0.00 86 1020.3
20260507042040 12 0 0.0 4.8 0.00 0.00 0.00 86 1020.3
20260507041545 12 90 0.0 4.8 0.00 0.00 0.00 85 1020.2
20260507041038 12 355 0.0 3.2 0.00 0.00 0.00 86 1020.3
20260507040541 12 328 0.0 3.2 0.00 0.00 0.00 86 1020.2
20260507040048 12 0 0.0 3.2 0.00 0.00 0.00 86 1020.2
20260507035536 12 0 0.0 3.2 0.00 0.00 0.00 85 1020.1
20260507035036 12 0 0.0 3.2 0.00 0.00 0.00 84 1020.0
20260507034556 12 328 0.0 3.2 0.00 0.00 0.00 85 1020.0
20260507034036 12 337 0.0 3.2 0.00 0.00 0.00 84 1019.9
20260507033541 12 0 0.0 3.2 0.00 0.00 0.00 84 1019.9
20260507033049 12 90 1.6 3.2 0.00 0.00 0.00 83 1019.9
20260507032539 12 210 0.0 3.2 0.00 0.00 0.00 83 1019.9
20260507032038 12 141 1.6 3.2 0.00 0.00 0.00 82 1019.8
20260507031551 12 141 0.0 3.2 0.00 0.00 0.00 83 1019.8
20260507031038 12 0 0.0 3.2 0.00 0.00 0.00 82 1019.8
20260507030538 12 99 1.6 3.2 0.00 0.00 0.00 83 1019.8
20260507030054 12 39 0.0 3.2 0.00 0.00 0.00 83 1019.7
20260507025536 12 120 1.6 3.2 0.00 0.00 0.00 82 1019.8
20260507025038 12 154 1.6 3.2 0.00 0.00 0.00 83 1019.7
20260507024552 12 162 1.6 4.8 0.00 0.00 0.00 83 1019.7
20260507024038 12 106 1.6 4.8 0.00 0.00 0.00 83 1019.6
20260507023538 12 120 3.2 6.4 0.00 0.00 0.00 82 1019.7
20260507023053 12 48 3.2 6.4 0.00 0.00 0.00 83 1019.6
20260507022538 12 70 1.6 4.8 0.00 0.00 0.00 83 1019.6
20260507022037 12 48 3.2 4.8 0.00 0.00 0.00 83 1019.7
20260507021543 12 114 3.2 4.8 0.00 0.00 0.00 83 1019.6
20260507021040 12 55 3.2 4.8 0.00 0.00 0.00 83 1019.7
20260507020537 12 70 3.2 4.8 0.00 0.00 0.00 82 1019.7
20260507020051 12 106 3.2 6.4 0.00 0.00 0.00 83 1019.7
20260507015535 12 106 3.2 6.4 0.00 0.00 0.00 82 1019.7
20260507015038 12 99 3.2 4.8 0.00 0.00 0.00 82 1019.6
20260507014550 12 99 3.2 4.8 0.00 0.00 0.00 82 1019.5
20260507014038 12 55 3.2 6.4 0.00 0.00 0.00 82 1019.5
20260507013538 12 120 3.2 6.4 0.00 0.00 0.00 82 1019.5
20260507013057 12 62 3.2 6.4 0.00 0.00 0.00 82 1019.5
20260507012537 12 99 3.2 6.4 0.00 0.00 0.00 81 1019.5
20260507012037 12 105 3.2 6.4 0.00 0.00 0.00 82 1019.5
20260507011546 12 136 1.6 6.4 0.00 0.00 0.00 82 1019.5
20260507011037 12 77 3.2 6.4 0.00 0.00 0.00 82 1019.6
20260507010537 12 48 3.2 6.4 0.00 0.00 0.00 81 1019.5
20260507010047 12 68 3.2 6.4 0.00 0.00 0.00 82 1019.6
20260507005538 12 58 3.2 9.7 0.00 0.00 0.00 81 1019.7
20260507005037 12 131 4.8 9.7 0.00 0.00 0.00 81 1019.6
20260507004542 13 41 6.4 9.7 0.00 0.00 0.00 82 1019.7
20260507004038 13 99 3.2 6.4 0.00 0.00 0.00 81 1019.7
20260507003542 13 62 3.2 6.4 0.00 0.00 0.00 81 1019.7
20260507003047 13 76 4.8 6.4 0.00 0.00 0.00 80 1019.7
20260507002541 13 77 3.2 8.0 0.00 0.00 0.00 81 1019.7
20260507002038 13 110 4.8 8.0 0.00 0.00 0.00 80 1019.7
20260507001549 12 115 4.8 6.4 0.00 0.00 0.00 81 1019.7
20260507001037 12 58 3.2 6.4 0.00 0.00 0.00 80 1019.8
20260507000540 12 48 3.2 8.0 0.00 0.00 0.00 81 1019.7
20260507000053 12 58 3.2 9.7 0.00 0.00 0.00 81 1019.8
20260506235537 12 25 4.8 9.7 0.00 0.00 0.00 80 1019.8
20260506235035 12 47 1.6 6.4 0.00 0.00 0.00 81 1019.8
20260506234555 12 99 1.6 8.0 0.00 0.00 0.00 80 1019.8
20260506234041 12 34 4.8 8.0 0.00 0.00 0.00 80 1019.8
20260506233540 12 39 3.2 8.0 0.00 0.00 0.00 80 1019.8
20260506233046 12 28 1.6 6.4 0.00 0.00 0.00 80 1019.8
20260506232537 12 51 3.2 6.4 0.00 0.00 0.00 81 1019.9
20260506232038 12 99 0.0 4.8 0.00 0.00 0.00 80 1019.9
20260506231545 12 39 1.6 9.7 0.00 0.00 0.00 80 1019.8
20260506231038 12 14 3.2 9.7 0.00 0.00 0.00 81 1019.8
20260506230535 12 41 3.2 8.0 0.00 0.00 0.00 81 1019.8
20260506230043 12 22 3.2 8.0 0.00 0.00 0.00 81 1019.9
20260506225541 12 340 3.2 8.0 0.00 0.00 0.00 82 1019.9
20260506225038 12 355 3.2 8.0 0.00 0.00 0.00 81 1019.9
20260506224601 12 39 3.2 8.0 0.00 0.00 0.00 81 1019.9
20260506224037 12 21 4.8 8.0 0.00 0.00 0.00 81 1019.9
20260506223537 12 1 4.8 8.0 0.00 0.00 0.00 81 1020.0
20260506223049 12 35 3.2 8.0 0.00 0.00 0.00 82 1019.9
20260506222537 12 10 3.2 6.4 0.00 0.00 0.00 81 1019.9
20260506222037 12 34 3.2 6.4 0.00 0.00 0.00 82 1020.0
20260506221553 12 339 3.2 6.4 0.00 0.00 0.00 82 1020.0
20260506221038 12 328 3.2 11.3 0.00 0.00 0.00 83 1020.0
20260506220537 12 9 4.8 11.3 0.00 0.00 0.00 84 1020.0
20260506220046 12 42 3.2 9.7 0.00 0.00 0.00 84 1020.0
20260506215536 12 11 3.2 6.4 0.00 0.00 0.00 84 1020.0
20260506215037 12 19 3.2 6.4 0.00 0.00 0.00 85 1020.0
20260506214604 12 28 3.2 8.0 0.00 0.00 0.00 84 1019.9
20260506214037 12 41 4.8 8.0 0.00 0.00 0.00 84 1019.9
20260506213538 12 26 1.6 6.4 0.00 0.00 0.00 84 1020.0
20260506213044 12 90 3.2 6.4 0.00 0.00 0.00 84 1019.9
20260506212537 12 5 1.6 14.5 0.00 0.00 0.00 85 1019.9
20260506212038 12 340 1.6 14.5 0.00 0.00 0.00 85 1020.0
20260506211548 12 198 4.8 14.5 0.00 0.00 0.00 85 1019.9
20260506211035 12 0 1.6 6.4 0.00 0.00 0.00 86 1019.9
20260506210538 12 210 1.6 6.4 0.00 0.00 0.00 86 1019.9
20260506210051 12 183 4.8 8.0 0.00 0.00 0.00 87 1019.9
20260506205537 12 221 1.6 8.0 0.00 0.00 0.00 86 1019.9
20260506205034 12 201 3.2 8.0 0.00 0.00 0.00 86 1019.9
20260506204546 12 183 4.8 9.7 0.00 0.00 0.00 87 1019.9
20260506204038 12 189 3.2 9.7 0.00 0.00 0.00 87 1019.9
20260506203537 12 239 0.0 9.7 0.00 0.00 0.00 87 1019.8
20260506203052 12 183 0.0 12.9 0.00 0.00 0.00 87 1019.9
20260506202538 12 196 4.8 12.9 0.00 0.00 0.00 86 1019.8
20260506202037 12 190 6.4 12.9 0.00 0.00 0.00 87 1019.8
20260506201546 12 198 8.0 11.3 0.00 0.00 0.00 87 1019.8
20260506201038 12 134 3.2 6.4 0.00 0.00 0.00 87 1019.8
20260506200539 12 207 1.6 4.8 0.00 0.00 0.00 87 1019.8
20260506200051 12 232 0.0 9.7 0.00 0.00 0.00 87 1019.8
20260506195538 12 0 3.2 9.7 0.00 0.00 0.00 87 1019.9
20260506195040 12 224 3.2 9.7 0.00 0.00 0.00 88 1019.7
20260506194601 12 210 3.2 6.4 0.00 0.00 0.00 88 1019.6
20260506194040 12 222 1.6 4.8 0.00 0.00 0.00 88 1019.7
20260506193537 12 183 1.6 8.0 0.00 0.00 0.00 87 1019.7
20260506193049 12 183 0.0 9.7 0.00 0.00 0.00 88 1019.7
20260506192538 12 213 4.8 9.7 0.00 0.00 0.00 87 1019.7
20260506192038 12 120 0.0 4.8 0.00 0.00 0.00 88 1019.7
20260506191551 12 227 0.0 4.8 0.00 0.00 0.00 88 1019.8
20260506191038 12 210 0.0 9.7 0.00 0.00 0.00 88 1019.7
20260506190538 11 0 1.6 9.7 0.00 0.00 0.00 88 1019.8
20260506190052 11 218 4.8 9.7 0.00 0.00 0.00 88 1019.7
20260506185538 12 217 3.2 6.4 0.00 0.00 0.00 88 1019.8
20260506185038 12 220 1.6 6.4 0.00 0.00 0.00 88 1019.8
20260506184544 11 124 1.6 6.4 0.00 0.00 0.00 89 1019.8
20260506184035 11 205 1.6 4.8 0.00 0.00 0.00 89 1019.7
20260506183538 11 255 0.0 4.8 0.00 0.00 0.00 89 1019.5
20260506183047 11 332 1.6 6.4 0.00 0.00 0.00 89 1019.5
20260506182537 11 217 3.2 6.4 0.00 0.00 0.00 89 1019.4
20260506182035 11 219 0.0 3.2 0.00 0.00 0.00 90 1019.5
20260506181548 11 183 1.6 4.8 0.00 0.00 0.00 89 1019.4
20260506181038 11 191 0.0 6.4 0.00 0.00 0.00 90 1019.6
20260506180540 11 326 1.6 6.4 0.00 0.00 0.00 90 1019.5
20260506180051 11 207 3.2 6.4 0.00 0.00 0.00 89 1019.5
20260506175537 11 203 1.6 9.7 0.00 0.00 0.00 90 1019.6
20260506175042 11 9 3.2 9.7 0.00 0.00 0.00 90 1019.7
20260506174547 11 90 1.6 3.2 0.00 0.00 0.00 91 1019.6
20260506174037 11 183 1.6 9.7 0.00 0.00 0.00 91 1019.5
20260506173539 11 355 3.2 9.7 0.00 0.00 0.00 91 1019.6
20260506173048 11 335 0.0 4.8 0.00 0.00 0.00 91 1019.6
20260506172535 11 345 1.6 4.8 0.00 0.00 0.00 91 1019.5
20260506172039 11 90 1.6 3.2 0.00 0.00 0.00 92 1019.5
20260506171553 11 328 1.6 4.8 0.00 0.00 0.00 92 1019.5
20260506171040 11 141 0.0 4.8 0.00 0.00 0.00 92 1019.4
20260506170540 11 236 1.6 4.8 0.00 0.00 0.00 92 1019.5
20260506170043 11 90 1.6 9.7 0.00 0.00 0.00 92 1019.4
20260506165539 11 227 3.2 9.7 0.00 0.00 0.00 92 1019.3
20260506165037 11 131 4.8 9.7 0.00 0.00 0.00 93 1019.2
20260506164552 11 217 3.2 6.4 0.00 0.00 0.00 92 1019.1
20260506164034 11 208 3.2 6.4 0.00 0.00 0.00 93 1019.1
20260506163537 11 149 1.6 9.7 0.00 0.00 0.00 93 1019.1
20260506163052 11 208 3.2 11.3 0.00 0.00 0.00 93 1019.1
20260506162537 11 215 3.2 11.3 0.00 0.00 0.00 93 1018.9
20260506162037 11 183 3.2 9.7 0.00 0.00 0.00 93 1019.0
20260506161545 11 191 0.0 4.8 0.00 0.00 0.00 94 1019.2
20260506161038 11 246 1.6 4.8 0.00 0.00 0.00 94 1019.2
20260506160537 11 112 1.6 4.8 0.00 0.00 0.00 94 1019.3
20260506160047 11 252 1.6 4.8 0.00 0.00 0.00 94 1019.3
20260506155537 11 25 1.6 3.2 0.00 0.00 0.00 94 1019.2
20260506155041 11 355 0.0 4.8 0.00 0.00 0.00 94 1019.2
20260506154610 10 151 1.6 6.4 0.00 0.00 0.00 94 1019.1
20260506154036 10 158 1.6 9.7 0.00 0.00 0.00 94 1019.0
20260506153534 11 200 4.8 9.7 0.00 0.00 0.00 94 1018.9
20260506153051 10 189 4.8 9.7 0.00 0.00 0.00 94 1018.9
20260506152535 10 212 1.6 6.4 0.00 0.00 0.00 94 1019.1
20260506152036 10 219 1.6 6.4 0.00 0.00 0.00 94 1019.2
20260506151551 11 191 1.6 4.8 0.00 0.00 0.00 94 1019.2
20260506151035 11 207 1.6 3.2 0.00 0.00 0.00 95 1019.2
20260506150535 11 227 0.0 3.2 0.00 0.00 0.00 95 1019.2
20260506150056 11 90 1.6 3.2 0.00 0.00 0.00 95 1019.3
20260506145540 11 55 0.0 3.2 0.00 0.00 0.00 95 1019.0
20260506145037 10 39 0.0 11.3 0.00 0.00 0.00 94 1019.0
20260506144555 10 158 1.6 11.3 0.00 0.00 0.00 94 1018.8
20260506144037 10 220 4.8 11.3 0.00 0.00 0.00 94 1018.6
20260506143537 10 211 6.4 11.3 0.00 0.00 0.00 94 1018.5
20260506143051 10 241 1.6 4.8 0.00 0.00 0.00 94 1018.7
20260506142538 10 195 1.6 4.8 0.00 0.00 0.00 94 1018.9
20260506142038 10 223 3.2 6.4 0.00 0.00 0.00 94 1018.7
20260506141550 10 227 0.0 6.4 0.00 0.00 0.00 94 1019.0
20260506141038 10 0 1.6 6.4 0.00 0.00 0.00 94 1019.0
20260506140537 10 183 4.8 6.4 0.00 0.00 0.00 94 1018.7
20260506140100 10 200 1.6 6.4 0.00 0.00 0.00 94 1018.7
20260506135534 10 243 1.6 3.2 0.00 0.00 0.00 94 1019.0
20260506135035 10 55 0.0 3.2 0.00 0.00 0.00 94 1018.8
20260506134552 10 214 1.6 3.2 0.00 0.00 0.00 94 1018.7
20260506134035 10 90 0.0 4.8 0.00 0.00 0.00 94 1018.7
20260506133535 10 12 1.6 4.8 0.00 0.00 0.00 94 1018.6
20260506133049 10 215 1.6 3.2 0.00 0.00 0.00 94 1018.2
20260506132534 10 234 1.6 3.2 0.00 0.00 0.00 94 1018.3
20260506132037 10 12 0.0 4.8 0.00 0.00 0.00 94 1018.4
20260506131545 10 183 1.6 6.4 0.00 0.00 0.00 94 1018.3
20260506131035 10 183 3.2 9.7 0.00 0.00 0.00 94 1018.3
20260506130534 10 213 3.2 9.7 0.00 0.00 0.00 93 1018.4
20260506130045 11 218 1.6 6.4 0.00 0.00 0.00 93 1018.3
20260506125534 11 217 3.2 6.4 0.00 0.00 0.00 94 1018.3
20260506125036 11 212 3.2 4.8 0.00 0.00 0.00 94 1018.1
20260506124541 11 232 3.2 4.8 0.00 0.00 0.00 94 1018.2
20260506124036 11 227 1.6 4.8 0.00 0.00 0.00 93 1018.1
20260506123537 11 223 3.2 4.8 0.00 0.00 0.00 93 1018.0
20260506123049 11 210 1.6 4.8 0.00 0.00 0.00 94 1018.0
20260506122535 11 158 1.6 4.8 0.00 0.00 0.00 93 1018.1
20260506122036 11 158 0.0 3.2 0.00 0.00 0.00 93 1018.0
20260506121540 11 217 1.6 3.2 0.00 0.00 0.00 93 1017.9
20260506121034 11 214 1.6 6.4 0.00 0.00 0.00 93 1017.9
20260506120537 11 193 1.6 6.4 0.00 0.00 0.00 93 1017.9
20260506120049 11 196 1.6 4.8 0.00 0.00 0.00 92 1017.9
20260506115536 11 213 1.6 4.8 0.00 0.00 0.00 92 1017.8
20260506115035 11 198 3.2 4.8 0.00 0.00 0.00 91 1017.8
20260506114540 11 174 1.6 3.2 0.00 0.00 0.00 91 1017.9
20260506114037 11 227 1.6 6.4 0.00 0.00 0.00 91 1018.0
20260506113535 11 217 3.2 6.4 0.00 0.00 0.00 90 1017.9
20260506113047 11 227 3.2 6.4 0.00 0.00 0.00 90 1017.9
20260506112535 11 0 0.0 4.8 0.00 0.00 0.00 90 1017.9
20260506112035 11 178 3.2 4.8 0.00 0.00 0.00 90 1017.9
20260506111551 11 243 0.0 4.8 0.00 0.00 0.00 89 1017.8
20260506111037 11 252 1.6 4.8 0.00 0.00 0.00 89 1017.7
20260506110536 11 205 1.6 3.2 0.00 0.00 0.00 89 1017.8
20260506110050 11 234 1.6 3.2 0.00 0.00 0.00 89 1017.8
20260506105536 11 210 1.6 3.2 0.00 0.00 0.00 89 1017.7
20260506105036 11 195 1.6 3.2 0.00 0.00 0.00 88 1017.7
20260506104554 11 183 0.0 3.2 0.00 0.00 0.00 88 1017.7
20260506104036 11 0 0.0 3.2 0.00 0.00 0.00 88 1017.6
20260506103535 11 90 0.0 3.2 0.00 0.00 0.00 88 1017.5
20260506103044 11 90 0.0 3.2 0.00 0.00 0.00 88 1017.5
20260506102535 12 39 1.6 3.2 0.00 0.00 0.00 87 1017.4
20260506102035 12 0 0.0 3.2 0.00 0.00 0.00 88 1017.4
20260506101548 12 355 0.0 3.2 0.00 0.00 0.00 88 1017.3
20260506101035 12 90 0.0 3.2 0.00 0.00 0.00 88 1017.2
20260506100536 12 21 1.6 3.2 0.00 0.00 0.00 87 1017.2
20260506100040 12 90 0.0 3.2 0.00 0.00 0.00 88 1017.2
20260506095537 12 5 0.0 3.2 0.00 0.00 0.00 88 1017.1
20260506095037 12 158 0.0 3.2 0.00 0.00 0.00 88 1017.0
20260506094547 12 0 0.0 3.2 0.00 0.00 0.00 88 1017.0
20260506094033 12 68 0.0 3.2 0.00 0.00 0.00 87 1017.0
20260506093537 12 90 0.0 3.2 0.00 0.00 0.00 88 1017.0
20260506093048 12 0 0.0 3.2 0.00 0.00 0.00 88 1017.0
20260506092535 12 0 0.0 3.2 0.00 0.00 0.00 87 1016.9
20260506092036 12 268 0.0 3.2 0.00 0.00 0.00 88 1016.9
20260506091545 12 0 0.0 3.2 0.00 0.00 0.00 88 1016.8
20260506091037 12 0 0.0 3.2 0.00 0.00 0.00 88 1016.8
20260506090537 12 99 0.0 3.2 0.00 0.00 0.00 87 1016.8
20260506090044 12 90 0.0 3.2 0.00 0.00 0.00 88 1016.8
20260506085536 12 268 0.0 3.2 0.00 0.00 0.00 88 1016.8
20260506085036 12 198 1.6 3.2 0.00 0.00 0.00 87 1016.7
20260506084553 12 210 1.6 3.2 0.00 0.00 0.00 88 1016.7
20260506084035 12 90 1.6 3.2 0.00 0.00 0.00 88 1016.7
20260506083534 12 158 0.0 3.2 0.00 0.00 0.00 89 1016.7
20260506083052 12 90 0.0 4.8 0.00 0.00 0.00 88 1016.7
20260506082537 12 183 1.6 4.8 0.00 0.00 0.00 89 1016.7
20260506082033 12 0 0.0 3.2 0.00 0.00 0.00 89 1016.7
20260506081552 12 220 1.6 3.2 0.00 0.00 0.00 89 1016.7
20260506081039 12 355 1.6 3.2 0.00 0.00 0.00 89 1016.7
20260506080534 12 252 1.6 3.2 0.00 0.00 0.00 89 1016.7
20260506073048 12 0 0.0 4.8 0.00 0.00 0.00 92 1016.5
20260506072532 12 162 3.2 4.8 0.00 0.00 0.00 92 1016.4
20260506072034 12 183 0.0 3.2 0.00 0.00 0.00 92 1016.4
20260506071542 12 210 1.6 4.8 0.00 0.00 0.00 93 1016.4
20260506071033 12 220 1.6 4.8 0.00 0.00 0.00 93 1016.3
20260506070535 12 196 1.6 4.8 0.00 0.00 0.00 93 1016.3
20260506062036 11 236 0.0 3.2 0.00 0.00 0.00 93 1015.6
20260506061548 11 183 1.6 3.2 0.00 0.00 0.00 92 1015.5
20260506061038 11 183 1.6 3.2 0.00 0.00 0.00 92 1015.5